星链-33832 (STARLINK-33832)

导读

STARLINK-33832是美国SpaceX星链计划中的一颗卫星,于2025年4月25日发射升空。星链计划旨在构建全球卫星互联网星座,为全球偏远地区等提供高速互联网接入服务。该卫星作为星链星座扩容的组成部分,将进一步完善星链网络的覆盖范围与服务能力,推动全球互联基础设施建设。

Basic Information
目录编号:
63637
目录名称:
STARLINK-33832
国际标识:
2025-083D
轨道中心:
EARTH
卫星名称:
星链-33832
卫星全名:
星链-33832 (STARLINK-33832)
卫星状态:
在轨 (已飞行497 天)
发射日期:
2025-04-25 UTC
国别 :
美国 (US)
星等 :
--
Orbit Information
数据来源 国际轨道数据
星历时间: 2026-09-04T13:09:48+0800
8小时前
查看轨道信息
半长轴: 6861.188km
偏心率: 0.0000844
轨道倾角: 43.000°
近地点辐角 243.931°
升交点赤经 76.680°
平近点角 116.145°
近地点: 482.471km
远地点: 483.631km
周期: 94.267分钟
每日圈数: 15.275794
Detailed Information
固有亮度:
5
最大亮度:
2.5
卫星平台:
Starlink V1.0
覆盖范围:
全球
运营商:
太空探索技术公司
运营商所在国:
美国
制造商(研发单位):
太空探索技术公司
制造商所在国:
美国
使用方式:
暂无
Satellite Introduction
Starlink 计划是 SpaceX 推出的全球卫星互联网项目,通过发射低轨道卫星,为全球尤其是偏远地区提供高速、低延迟的互联网服务。自 2019 年起,Starlink 已部署数千颗卫星,旨在缩小全球数字鸿沟,推动互联网普及。该项目还为军事、航空等行业提供通信支持,带来广泛经济效益。
2D Orbit Map
3D Orbit Map
Orbit Altitude Analysis Chart
Orbit Inclination Analysis Chart
Orbit Comprehensive Analysis Chart
View Comprehensive Chart
Conjunction Data List
Event ID Objects TCA Miss Dist (km) Collision Risk Probability Collision Risk Index (CRI) Action
CDM_260829-134406-242206-363721
2026-08-29T
13:44:22+0000
0.169 km
中距离
6.163239E-4 高风险 0.91
CDM_260829-095705-601206-363722
2026-08-29T
09:57:05+0000
0.233 km
中距离
4.054433E-4 高风险 0.87
CDM_260906-064805-987906-363721
2026-09-06T
06:48:42+0000
0.309 km
远距离
3.663081E-4 高风险 0.86
CDM_260906-030705-601206-363721
2026-09-06T
03:07:38+0000
0.251 km
中距离
3.636606E-4 高风险 0.86
CDM_260905-205405-807806-363721
2026-09-05T
20:54:32+0000
0.794 km
远距离
3.191204E-5 中风险 0.65
CDM_260829-091305-807806-363721
2026-08-29T
09:13:32+0000
0.805 km
远距离
3.04516E-5 中风险 0.65
CDM_260829-135205-601206-363721
2026-08-29T
13:52:28+0000
0.804 km
远距离
2.117729E-5 中风险 0.62
CDM_260906-170005-987906-363721
2026-09-06T
17:00:42+0000
1.006 km
极远距离
1.693622E-5 中风险 0.6
CDM_260829-145205-924306-363721
2026-08-29T
14:52:01+0000
1.098 km
极远距离
1.459189E-5 中风险 0.58
CDM_260906-012706-187206-363721
OBJECT D (61872)
2026-09-06T
01:27:34+0000
1.463 km
极远距离
6.416859E-6 低风险 0.51